Location: Le Castellard
(44.1862°N, 6.1301°E)
Time: 19:26:19
(UTC+00:00)

STARLINK-77 - Pass Details

Date: 18 January 2020
Orbit: 528 x 531 km, 53.0° (Epoch: 28 February)

Event Time Altitude Azimuth Distance (km) Brightness Sun altitude
Rises 06:15:20 0° 226° (SW) 2,656 6.8 -9.2°
Reaches altitude 10° 06:17:33 10° 224° (SW) 1,770 6.0 -8.8°
Maximum altitude 06:21:32 66° 142° (SE) 581 4.0 -8.1°
Drops below altitude 10° 06:25:32 10° 60° (ENE) 1,782 6.8 -7.4°
Sets 06:27:46 0° 58° (ENE) 2,676 7.7 -7.1°
